Location: Pinon Hills
(34.4429°N, 117.6403°W)
Time: 15:55:08
(UTC-08:00)

Daily predictions for brighter satellites

Satellite Brightness Start Highest point End
(mag) Time Altitude Azimuth Time Altitude Azimuth Time Altitude Azimuth
Meteor 1-25 Rocket 4.2 17:57:07 10° S 18:02:34 63° E 18:08:03 10° NNE
Iridium 4 Rocket 3.9 18:00:26 10° NNE 18:04:27 29° E 18:08:13 10° SE
Cosmos 1633 2.5 18:02:17 10° S 18:05:47 66° E 18:09:21 10° NNE
Cosmos 44 Rocket 3.5 18:03:46 10° NNW 18:08:46 56° ENE 18:13:49 10° SE
CZ-4C R/B 4.5 18:08:56 10° N 18:12:34 14° NE 18:16:23 10° ENE
COSMO-SKYMED 1 3.6 18:12:48 10° N 18:17:01 52° WNW 18:21:13 10° SSW
Okean 3 3.4 18:13:38 10° N 18:17:49 78° E 18:22:00 10° S
BREEZE-M DEB (TANK) 4.0 18:17:37 10° NNE 18:18:07 10° NNE 18:18:40 10° NE
Sich 1 Rocket 3.7 18:14:18 10° S 18:18:42 58° E 18:23:05 10° NNE
FENGYUN 3A 3.9 18:15:51 10° S 18:21:15 80° WSW 18:26:41 10° NNW
ALOS 2.7 18:17:01 10° S 18:21:40 70° W 18:26:20 10° NNW
Cosmos 1048 Rocket 4.1 18:16:33 10° SSW 18:21:53 86° WNW 18:27:12 10° NNE
Cosmos 1452 Rocket 3.6 18:17:49 10° NNW 18:23:05 83° WSW 18:28:19 10° SSE
FALCON 9 R/B 3.9 18:17:59 10° W 18:24:12 89° S 18:46:37 14° E
Tsikada Rocket 4.3 18:19:52 10° SSE 18:25:52 44° E 18:31:54 10° NNE
Cosmos 44 3.7 18:21:02 10° NNW 18:26:09 74° WSW 18:31:27 10° SSE
Gbstr 26 Del rocket 2.8 18:22:26 10° SW 18:26:10 73° NW 18:29:59 10° NE
Okean 2 Rocket 3.7 18:25:58 10° SSE 18:29:52 32° E 18:33:47 10° NNE
ERS-2 2.6 18:28:17 10° SE 18:31:41 37° ENE 18:35:07 10° N
FengYun 1-2 T 4.3 18:28:11 10° SSE 18:33:33 57° ENE 18:38:54 10° N
Cosmos 921 Rocket 3.2 18:29:40 10° N 18:34:06 54° ENE 18:38:26 10° SSE
SPOT 3 Rocket 3.6 18:31:12 10° SSE 18:36:23 87° WSW 18:41:38 10° NNW
ARGOS Delta rocket 4.3 18:33:55 10° NNE 18:38:10 33° E 18:42:13 10° SSE
Cosmos 1464 Rocket 4.0 18:33:25 10° N 18:39:34 90° E 18:45:43 10° S
Cosmos 1420 Rocket 4.4 18:35:19 10° NNW 18:40:35 71° WSW 18:45:52 10° S
H-2A R/B 2.7 18:36:57 10° SSE 18:40:51 84° E 18:44:46 10° N
Centaur D-1A AC-32 4.1 18:38:46 10° WSW 18:43:11 48° SSE 18:54:57 16° ESE
SeaSat 1 3.7 18:44:26 19° ENE 18:45:47 21° NE 18:49:28 10° N
SL-16 R/B 2.7 18:41:07 10° NNW 18:46:43 62° WSW 18:52:15 10° S
GPS 2-05 Rocket1 2.5 18:47:01 10° WSW 18:50:12 71° SSE 18:51:17 36° E
COSMOS 2455 2.8 18:46:59 10° S 18:52:52 61° ESE 18:58:49 10° NNE
SJ-6B 3.0 18:49:25 10° SSE 18:53:00 44° ENE 18:56:41 10° N
Cosmos 2346 Rocket 4.4 18:56:33 10° S 19:02:42 68° E 19:08:48 10° NNE
HJ-1C 3.2 18:59:28 10° SSE 19:02:52 76° ENE 19:06:18 10° N
CZ-2D R/B 3.3 19:02:32 18° SSE 19:05:15 54° ENE 19:09:05 10° N
USA 215 3.2 18:59:05 11° NE 19:05:21 77° SE 19:11:52 10° SW
Cosmos 1603 3.7 19:00:10 10° NNW 19:05:43 58° ENE 19:09:51 18° SE
Envisat 3.1 19:01:38 10° SSE 19:06:32 52° ENE 19:11:27 10° N
BREEZE-M DEB (TANK) 3.1 19:04:21 10° SW 19:07:07 76° NW 19:13:55 11° NE
Sakura Rocket 4.3 19:03:22 10° WSW 19:08:27 50° S 19:11:49 27° ESE
ATLAS CENTAUR R/B 3.3 19:09:13 10° N 19:10:57 17° NNE 19:10:57 17° NNE
Cosmos 1975 Rocket 3.3 19:08:49 10° NNW 19:13:15 71° W 19:17:41 10° S
Meteor 1-4 Rocket 2.7 19:10:09 10° SSW 19:13:37 68° W 19:17:10 10° N
Cosmos 2263 Rocket 2.1 19:08:31 10° S 19:13:59 64° ESE 19:19:31 10° NNE
Cosmos 494 Rocket 4.1 19:10:05 10° SSW 19:15:17 76° WNW 19:20:30 10° NNE
Meteor 1-13 Rocket 4.0 19:12:08 10° N 19:17:40 75° E 19:23:10 10° SSE
Cosmos 1110 Rocket 3.9 19:21:23 10° NNW 19:26:42 84° ENE 19:29:49 25° SSE
Cosmos 1634 Rocket 3.9 19:21:30 10° N 19:27:35 61° E 19:32:07 19° SSE
Resurs 01 Rocket 2.7 19:30:26 32° NNE 19:30:26 32° NNE 19:33:02 10° N
Thor Agena Rocket 3.9 19:23:56 10° N 19:28:57 64° WNW 19:33:55 10° SSW
OAO 2 Rocket 3.0 19:32:45 10° W 19:37:43 90° SE 19:37:55 83° E
Cosmos 2142 Rocket 4.4 19:32:31 10° N 19:38:49 65° E 19:40:35 46° SE
Cosmos 1536 3.2 19:36:32 10° SSW 19:40:31 64° W 19:41:08 55° NW
Lacrosse 5 rocket 3.0 19:40:51 10° SW 19:42:18 22° SW 19:42:18 22° SW
Meteor 1-5 Rocket 4.4 19:39:26 10° SSW 19:45:18 78° W 19:51:18 10° N
Meteor 2-4 Rocket 3.9 19:41:35 10° NNW 19:47:17 71° W 19:52:22 12° S
OAO 1 4.4 19:42:00 10° W 19:47:31 76° SSW 19:47:42 75° S
Spot 2 Rocket 4.4 19:58:05 38° N 19:58:05 38° N 20:01:12 10° N
Geosat 4.3 20:00:58 58° NNW 20:01:29 62° WNW 20:06:25 10° SW
CZ-4C R/B 3.0 19:55:13 10° NNW 20:02:25 60° NE 20:02:25 60° NE
Cosmos 1943 3.5 20:04:24 10° NNW 20:09:25 65° WNW 20:09:25 65° WNW
SeaSat 1 3.8 20:24:15 36° WNW 20:24:15 36° WNW 20:27:42 10° NW
